STARLINK AZ (44282 NORAD) Tracking and Keplerian Element Data

This shows tracking and keplerian element data for the satellite.

Feedback or suggestion? Click here.




ElementValue
Catalog44282
NameSTARLINK AZ
Epoch Orbit449
Epoch Day172.97134818
Epoch Year2019
RAAN41.5248
Inclination52.9974
Eccentricity0.0003945
Argument of Perigee141.2191
Mean Anonmoly218.9088
Mean Motion15.22230804
Decay Rate0.00715125
L11 44282U 19029AZ 19172.97134818 .00715125 00000-0 28622-1 0 9994
L22 44282 52.9974 41.5248 0003945 141.2191 218.9088 15.22230804 4492

Live tracking and technical data element details for STARLINK AZ (NORAD 44282). STARLINK AZ can be tracked NOW for your location showing map with azimuth and elevation plus other details from your city location.

Track the satellite on the map from your city or location and see movement details for azimuth, elevation, latitude, longitude, range, height, and movement on the map or in text.







IsCatalogInMostPopularTable: catalog: 44282, numindb: 31
Update: records affected: 1



GetName: 44282 STARLINK AZ

Hit Count: updated at: Sun, 21 Jul 2019 20:57:43 GMT